User: anonymous   Login
Location: Aranbee
(34.0885°N, 118.2342°W)
Time: 22:30:17
(UTC+00:00)
Language:

SR - Orbit

View from above orbital plane
View from above orbital plane
View from above satellite
View from above satellite

Ground track
Ground track

The orbit data is extracted from the following two-line orbital elements,

1    46U 60007B   20330.52900284 +.00000175 +00000-0 +57705-4 0  9992
2    46 066.6904 331.3055 0208832 009.1053 351.3747 14.49334698162453
Epoch (UTC): 25 November 2020 12:41:45
Eccentricity: 0.0208832
inclination: 66.6904°
perigee height: 579 km
apogee height: 876 km
right ascension of ascending node: 331.3055°
argument of perigee: 9.1053°
revolutions per day: 14.49334698
mean anomaly at epoch: 351.3747°
orbit number at epoch: 16245

The dashed part of the orbit path shows where the satellite is in the earth's shadow,  

DLR